Weather History for Beijing, Beijing

Change the Weather History Date:

Monday, November 11, 2013

  Actual Average Record
Temperature  
Mean Temperature 42 °F -  
Max Temperature 55 °F 46 °F - ()
Min Temperature 28 °F 27 °F - ()
Degree Days  
Heating Degree Days 24    
Moisture  
Dew Point 11 °F    
Average Humidity 30    
Maximum Humidity 64    
Minimum Humidity 8    
Precipitation  
Precipitation 0.00 in 0.01 in - ()
Sea Level Pressure  
Sea Level Pressure 30.36 in    
Wind  
Wind Speed 5 mph ()    
Max Wind Speed 13 mph    
Max Gust Speed 22 mph    
Visibility 8.3 miles    
Events      
T = Trace of Precipitation, MM = Missing Value Source: Averaged Metar Reports

Daily Weather History Graph

Daily Weather History Graph

Search for Another Location

Airport:

Trip Planner

Search our weather history database for the weather conditions in past years. The results will help you decide how hot, cold, wet, or windy it might be!

Date:

Astronomy

Nov. 11, 2013 Rise Set
Actual Time 6:53 AM CST 5:01 PM CST
Civil Twilight 6:25 AM CST 5:30 PM CST
Nautical Twilight 5:52 AM CST 6:02 PM CST
Astronomical Twilight 5:21 AM CST 6:34 PM CST
Moon 1:22 PM CST (11/11) 12:02 AM CST (11/11)
Length of Visible Light 11h 05m
Length of Day
10h 07m
First Quarter, 60% of the Moon is Illuminated
Nov 11
First Quarter
Nov 17
Full
Nov 26
Last Quarter
Dec 3
New
Dec 9
First Quarter

Hourly Weather History & Observations

Time (CST) Temp. Windchill Dew Point Humidity Pressure Visibility Wind Dir Wind Speed Gust Speed Precip Events Conditions
12:00 AM 33.8 °F 29.7 °F 10.4 °F 38% 30.42 in - North 4.5 mph - N/A   Clear
12:30 AM 32.0 °F 27.6 °F 12.2 °F 44% 30.42 in - NNE 4.5 mph - N/A   Clear
1:00 AM 33.8 °F 29.7 °F 8.6 °F 35% 30.42 in - North 4.5 mph - N/A   Clear
1:30 AM 33.8 °F 29.7 °F 12.2 °F 41% 30.42 in - NE 4.5 mph - N/A   Clear
2:00 AM 35.6 °F - 8.6 °F 33% 30.45 in - Variable 2.2 mph - N/A   Clear
2:30 AM 30.2 °F 25.5 °F 12.2 °F 47% 30.45 in - North 4.5 mph - N/A   Clear
3:00 AM 33.8 °F 27.9 °F 10.4 °F 38% 30.45 in - North 6.7 mph - N/A   Clear
3:30 AM 35.6 °F - 8.6 °F 33% 30.45 in - Variable 2.2 mph - N/A   Clear
4:00 AM 33.8 °F 29.7 °F 6.8 °F 32% 30.45 in - West 4.5 mph - N/A   Clear
4:30 AM 28.4 °F 23.4 °F 10.4 °F 47% 30.45 in - North 4.5 mph - N/A   Clear
5:00 AM 38 °F - 11 °F 20% 30.43 in - NE 4.5 mph - -   Clear
5:00 AM 32.0 °F 27.6 °F 14.0 °F 48% 30.45 in - North 4.5 mph - N/A   Clear
5:30 AM 30.2 °F 23.5 °F 12.2 °F 47% 30.42 in - North 6.7 mph - N/A   Clear
6:00 AM 28.4 °F 23.4 °F 12.2 °F 51% 30.42 in - North 4.5 mph - N/A   Clear
6:30 AM 30.2 °F 23.5 °F 12.2 °F 47% 30.45 in - North 6.7 mph - N/A   Clear
7:00 AM 30.2 °F 25.5 °F 12.2 °F 47% 30.45 in - North 4.5 mph - N/A   Clear
7:30 AM 32.0 °F 25.7 °F 15.8 °F 51% 30.45 in - North 6.7 mph - N/A   Clear
8:00 AM 37.4 °F 32.2 °F 15.8 °F 41% 30.45 in - North 6.7 mph - N/A   Clear
8:30 AM 44.6 °F - 12.2 °F 27% 30.45 in - Calm Calm - N/A   Clear
9:00 AM 46.4 °F 43.0 °F 10.4 °F 23% 30.45 in - North 6.7 mph - N/A   Clear
9:30 AM 50.0 °F - 6.8 °F 17% 30.45 in - NNW 6.7 mph - N/A   Clear
10:00 AM 51.8 °F - 3.2 °F 14% 30.45 in - North 8.9 mph - N/A   Clear
10:30 AM 53.6 °F - 3.2 °F 13% 30.42 in - NNW 8.9 mph - N/A   Clear
11:00 AM 51 °F - 9 °F 8% 30.42 in 19 mi NNE 2.2 mph - -  
11:00 AM 53.6 °F - 1.4 °F 12% 30.42 in - NNW 6.7 mph - N/A   Clear
11:30 AM 55.4 °F - 3.2 °F 12% 30.39 in - NNW 8.9 mph - N/A   Clear
12:00 PM 53.6 °F - 3.2 °F 13% 30.36 in - WNW 8.9 mph 22.4 mph N/A   Clear
12:30 PM 55.4 °F - 3.2 °F 12% 30.33 in - West 8.9 mph 22.4 mph N/A   Clear
1:00 PM 55.4 °F - 3.2 °F 12% 30.33 in - WSW 8.9 mph 20.1 mph N/A   Clear
1:30 PM 55.4 °F - 3.2 °F 12% 30.30 in - SSW 6.7 mph - N/A   Clear
2:00 PM 54 °F - 11 °F 9% 30.31 in 17 mi SW 6.7 mph - -  
2:00 PM 55.4 °F - 3.2 °F 12% 30.30 in - SW 8.9 mph - N/A   Clear
2:30 PM 55.4 °F - 5.0 °F 13% 30.27 in - SW 8.9 mph - N/A   Clear
3:00 PM 55.4 °F - 5.0 °F 13% 30.27 in - SSW 11.2 mph - N/A   Clear
3:30 PM 55.4 °F - 6.8 °F 14% 30.27 in - SW 11.2 mph 22.4 mph N/A   Clear
4:00 PM 53.6 °F - 6.8 °F 15% 30.27 in - SSW 13.4 mph - N/A   Clear
4:30 PM 51.8 °F - 6.8 °F 16% 30.24 in - SSW 11.2 mph - N/A   Clear
5:00 PM 49 °F - 15 °F 14% 30.27 in 12 mi SW 8.9 mph - -  
5:00 PM 50.0 °F - 6.8 °F 17% 30.24 in - SW 11.2 mph - N/A   Clear
5:30 PM 48.2 °F - 8.6 °F 20% 30.24 in - South 6.7 mph - N/A   Clear
6:00 PM 44.6 °F 42.3 °F 8.6 °F 23% 30.27 in - South 4.5 mph - N/A   Clear
6:30 PM 44.6 °F 40.8 °F 10.4 °F 25% 30.27 in - South 6.7 mph - N/A   Clear
7:00 PM 44.6 °F 42.3 °F 12.2 °F 27% 30.24 in - SE 4.5 mph - N/A   Clear
7:30 PM 42.8 °F - 12.2 °F 29% 30.27 in - Variable 2.2 mph - N/A   Clear
8:00 PM 39.2 °F - 15.8 °F 39% 30.27 in - Variable 2.2 mph - N/A   Clear
8:30 PM 39.2 °F - 17.6 °F 42% 30.27 in 5.0 mi Variable 2.2 mph - N/A   Unknown
9:00 PM 35.6 °F - 17.6 °F 48% 30.27 in 5.0 mi East 2.2 mph - N/A   Unknown
9:30 PM 35.6 °F 31.8 °F 19.4 °F 52% 30.27 in 5.0 mi East 4.5 mph - N/A   Unknown
10:00 PM 35.6 °F - 21.2 °F 56% 30.27 in 5.0 mi East 2.2 mph - N/A   Unknown
10:30 PM 35.6 °F - 21.2 °F 56% 30.27 in 5.0 mi SSE 2.2 mph - N/A   Unknown
11:00 PM 42 °F - 20 °F 29% 30.27 in - West 2.2 mph - -   Clear
11:00 PM 35.6 °F - 21.2 °F 56% 30.27 in 5.0 mi Variable 2.2 mph - N/A   Unknown
11:30 PM 30.2 °F 25.5 °F 19.4 °F 64% 30.27 in 5.0 mi NNE 4.5 mph - N/A   Unknown